| time (UTC) | temp F | wind direction | speed MPH | gust MPH | rain 1hr in | rain 24hr in | rain mn in | humidity % | barometer mb |
| 20260901032710 | 72 | 234 | 0.0 | 0.0 | 0.00 | 0.00 | 0.00 | 99 | 1018.9 |
| 20260901031510 | 72 | 229 | 0.0 | 0.0 | 0.00 | 0.00 | 0.00 | 99 | 1018.9 |
| 20260901030932 | 72 | 232 | 0.0 | 0.0 | 0.00 | 0.00 | 0.00 | 99 | 1019.3 |
| 20260901030349 | 72 | 232 | 0.0 | 0.0 | 0.00 | 0.00 | 0.00 | 99 | 1019.3 |
| 20260901025131 | 72 | 229 | 0.0 | 0.0 | 0.00 | 0.00 | 0.00 | 99 | 1018.9 |
| 20260901024522 | 73 | 229 | 0.0 | 0.0 | 0.00 | 0.00 | 0.00 | 99 | 1019.3 |
| 20260901023947 | 73 | 232 | 0.0 | 0.0 | 0.00 | 0.00 | 0.00 | 99 | 1018.9 |
| 20260901023313 | 73 | 233 | 0.0 | 0.0 | 0.00 | 0.00 | 0.00 | 99 | 1018.9 |
| 20260901022124 | 73 | 229 | 0.0 | 0.0 | 0.00 | 0.00 | 0.00 | 99 | 1019.3 |
| 20260901021528 | 73 | 233 | 0.0 | 0.0 | 0.00 | 0.00 | 0.00 | 99 | 1018.9 |
| 20260901020927 | 73 | 233 | 0.0 | 0.0 | 0.00 | 0.00 | 0.00 | 99 | 1018.9 |
| 20260901015726 | 73 | 234 | 0.0 | 0.0 | 0.00 | 0.00 | 0.00 | 99 | 1018.9 |
| 20260901015140 | 73 | 234 | 0.0 | 0.0 | 0.00 | 0.00 | 0.00 | 99 | 1018.9 |
| 20260901014526 | 73 | 233 | 0.0 | 0.0 | 0.00 | 0.00 | 0.00 | 99 | 1018.9 |
| 20260901013923 | 74 | 234 | 0.0 | 0.0 | 0.00 | 0.00 | 0.00 | 99 | 1018.9 |
| 20260901013343 | 74 | 234 | 0.0 | 0.0 | 0.00 | 0.00 | 0.00 | 99 | 1018.6 |
| 20260901012709 | 74 | 234 | 0.0 | 0.0 | 0.00 | 0.00 | 0.00 | 99 | 1018.6 |
| 20260901012114 | 74 | 233 | 0.0 | 0.0 | 0.00 | 0.00 | 0.00 | 99 | 1018.9 |
| 20260901011528 | 74 | 239 | 0.0 | 0.0 | 0.00 | 0.00 | 0.00 | 99 | 1018.9 |
| 20260901010940 | 74 | 238 | 0.0 | 0.0 | 0.00 | 0.00 | 0.00 | 99 | 1018.6 |
| 20260901005141 | 75 | 232 | 0.0 | 0.0 | 0.00 | 0.00 | 0.00 | 99 | 1017.9 |
| 20260901004538 | 75 | 232 | 0.0 | 0.0 | 0.00 | 0.00 | 0.00 | 99 | 1017.9 |
| 20260901003923 | 75 | 231 | 0.0 | 0.0 | 0.00 | 0.00 | 0.00 | 99 | 1017.9 |
| 20260901003311 | 75 | 234 | 0.0 | 0.0 | 0.00 | 0.00 | 0.00 | 99 | 1017.9 |
| 20260901002738 | 75 | 232 | 0.0 | 0.0 | 0.00 | 0.00 | 0.00 | 99 | 1017.9 |
| 20260901002150 | 75 | 230 | 0.0 | 0.0 | 0.00 | 0.00 | 0.00 | 99 | 1017.9 |
| 20260901001508 | 76 | 230 | 0.0 | 0.0 | 0.00 | 0.00 | 0.00 | 99 | 1017.6 |
| 20260901000923 | 76 | 235 | 0.0 | 0.0 | 0.00 | 0.00 | 0.00 | 99 | 1017.6 |
| 20260901000321 | 76 | 231 | 0.0 | 0.0 | 0.00 | 0.00 | 0.00 | 99 | 1017.9 |
| 20260831235719 | 76 | 233 | 0.0 | 0.0 | 0.00 | 0.00 | 0.00 | 99 | 1018.2 |
| 20260831235146 | 77 | 234 | 0.0 | 0.0 | 0.00 | 0.00 | 0.00 | 98 | 1017.9 |
| 20260831233339 | 78 | 242 | 0.0 | 0.0 | 0.00 | 0.00 | 0.00 | 97 | 1017.9 |
| 20260831232713 | 78 | 236 | 0.0 | 0.0 | 0.00 | 0.00 | 0.00 | 97 | 1018.2 |
| 20260831232146 | 78 | 236 | 0.0 | 0.0 | 0.00 | 0.00 | 0.00 | 97 | 1018.2 |
| 20260831231544 | 79 | 229 | 0.0 | 0.0 | 0.00 | 0.00 | 0.00 | 96 | 1017.9 |
| 20260831230947 | 80 | 238 | 0.0 | 0.0 | 0.00 | 0.00 | 0.00 | 96 | 1017.9 |
| 20260831225739 | 81 | 235 | 0.0 | 0.0 | 0.00 | 0.00 | 0.00 | 94 | 1018.2 |
| 20260831225115 | 82 | 235 | 0.0 | 0.0 | 0.00 | 0.00 | 0.00 | 94 | 1017.9 |
| 20260831224536 | 82 | 240 | 0.0 | 0.0 | 0.00 | 0.00 | 0.00 | 93 | 1018.2 |
| 20260831223917 | 83 | 257 | 0.0 | 0.0 | 0.00 | 0.00 | 0.00 | 92 | 1018.2 |
| 20260831223336 | 83 | 240 | 0.0 | 0.0 | 0.00 | 0.00 | 0.00 | 90 | 1018.2 |
| 20260831222727 | 83 | 238 | 0.0 | 0.0 | 0.00 | 0.00 | 0.00 | 87 | 1018.2 |
| 20260831222122 | 83 | 237 | 0.0 | 0.0 | 0.00 | 0.00 | 0.00 | 87 | 1018.2 |
| 20260831220918 | 83 | 244 | 0.0 | 0.0 | 0.00 | 0.00 | 0.00 | 89 | 1018.2 |
| 20260831215707 | 84 | 253 | 0.0 | 0.0 | 0.00 | 0.00 | 0.00 | 86 | 1018.6 |
| 20260831215136 | 84 | 244 | 0.0 | 0.0 | 0.00 | 0.00 | 0.00 | 88 | 1018.6 |
| 20260831214533 | 84 | 243 | 0.0 | 0.0 | 0.00 | 0.00 | 0.00 | 87 | 1018.6 |
| 20260831213331 | 85 | 236 | 0.0 | 0.0 | 0.00 | 0.00 | 0.00 | 88 | 1018.9 |
| 20260831212707 | 86 | 254 | 0.0 | 0.0 | 0.00 | 0.00 | 0.00 | 88 | 1018.9 |
| 20260831212135 | 87 | 235 | 0.0 | 0.0 | 0.00 | 0.00 | 0.00 | 85 | 1018.6 |
| 20260831211535 | 87 | 248 | 0.0 | 0.0 | 0.00 | 0.00 | 0.00 | 84 | 1018.9 |
| 20260831210915 | 88 | 249 | 0.0 | 0.0 | 0.00 | 0.00 | 0.00 | 85 | 1018.9 |
| 20260831210325 | 89 | 251 | 0.0 | 0.0 | 0.00 | 0.00 | 0.00 | 84 | 1018.6 |
| 20260831205723 | 90 | 255 | 0.0 | 0.0 | 0.00 | 0.00 | 0.00 | 80 | 1018.6 |
| 20260831205140 | 90 | 227 | 0.0 | 0.0 | 0.00 | 0.00 | 0.00 | 74 | 1018.6 |
| 20260831204545 | 90 | 248 | 0.0 | 0.0 | 0.00 | 0.00 | 0.00 | 78 | 1018.6 |
| 20260831203911 | 91 | 245 | 0.0 | 0.0 | 0.00 | 0.00 | 0.00 | 68 | 1018.9 |
| 20260831203340 | 91 | 261 | 0.0 | 0.0 | 0.00 | 0.00 | 0.00 | 66 | 1018.9 |
| 20260831202743 | 91 | 223 | 0.0 | 0.0 | 0.00 | 0.00 | 0.00 | 74 | 1018.9 |
| 20260831202143 | 90 | 234 | 0.0 | 0.0 | 0.00 | 0.00 | 0.00 | 74 | 1018.9 |
| 20260831201516 | 90 | 330 | 0.0 | 0.0 | 0.00 | 0.00 | 0.00 | 67 | 1018.9 |
| 20260831200934 | 89 | 289 | 0.0 | 0.0 | 0.00 | 0.00 | 0.00 | 65 | 1019.3 |
| 20260831200326 | 89 | 269 | 0.0 | 2.0 | 0.00 | 0.00 | 0.00 | 65 | 1018.9 |
| 20260831195737 | 89 | 260 | 2.0 | 5.0 | 0.00 | 0.00 | 0.00 | 70 | 1019.3 |
| 20260831195147 | 89 | 242 | 0.0 | 0.0 | 0.00 | 0.00 | 0.00 | 80 | 1019.3 |
| 20260831194547 | 89 | 226 | 0.0 | 0.0 | 0.00 | 0.00 | 0.00 | 72 | 1019.3 |
| 20260831193915 | 90 | 242 | 2.0 | 5.0 | 0.00 | 0.00 | 0.00 | 72 | 1019.3 |
| 20260831193317 | 90 | 251 | 1.0 | 2.0 | 0.00 | 0.00 | 0.00 | 69 | 1019.6 |
| 20260831192719 | 90 | 334 | 3.0 | 5.0 | 0.00 | 0.00 | 0.00 | 68 | 1019.3 |
| 20260831192132 | 90 | 262 | 0.0 | 0.0 | 0.00 | 0.00 | 0.00 | 69 | 1019.6 |
| 20260831191542 | 90 | 186 | 4.0 | 5.0 | 0.00 | 0.00 | 0.00 | 67 | 1019.6 |
| 20260831190908 | 90 | 290 | 1.0 | 2.0 | 0.00 | 0.00 | 0.00 | 67 | 1019.6 |
| 20260831190327 | 89 | 198 | 3.0 | 5.0 | 0.00 | 0.00 | 0.00 | 70 | 1019.6 |
| 20260831185722 | 89 | 246 | 1.0 | 2.0 | 0.00 | 0.00 | 0.00 | 72 | 1019.6 |
| 20260831185149 | 89 | 318 | 1.0 | 5.0 | 0.00 | 0.00 | 0.00 | 73 | 1019.6 |
| 20260831184509 | 89 | 197 | 4.0 | 7.0 | 0.00 | 0.00 | 0.00 | 71 | 1019.6 |
| 20260831183315 | 89 | 215 | 0.0 | 5.0 | 0.00 | 0.00 | 0.00 | 71 | 1019.6 |
| 20260831182743 | 88 | 267 | 0.0 | 2.0 | 0.00 | 0.00 | 0.00 | 71 | 1019.9 |
| 20260831182120 | 88 | 321 | 0.0 | 2.0 | 0.00 | 0.00 | 0.00 | 72 | 1019.9 |
| 20260831181508 | 87 | 207 | 0.0 | 0.0 | 0.00 | 0.00 | 0.00 | 74 | 1019.9 |
| 20260831180910 | 87 | 280 | 0.0 | 0.0 | 0.00 | 0.00 | 0.00 | 74 | 1020.3 |
| 20260831180345 | 86 | 233 | 0.0 | 0.0 | 0.00 | 0.00 | 0.00 | 74 | 1020.3 |
| 20260831175718 | 86 | 271 | 0.0 | 0.0 | 0.00 | 0.00 | 0.00 | 80 | 1020.3 |
| 20260831175128 | 86 | 247 | 0.0 | 0.0 | 0.00 | 0.00 | 0.00 | 80 | 1020.3 |
| 20260831174542 | 86 | 7 | 3.0 | 5.0 | 0.00 | 0.00 | 0.00 | 76 | 1020.3 |
| 20260831173939 | 86 | 303 | 0.0 | 0.0 | 0.00 | 0.00 | 0.00 | 79 | 1020.3 |
| 20260831173329 | 86 | 291 | 0.0 | 2.0 | 0.00 | 0.00 | 0.00 | 77 | 1020.3 |
| 20260831172706 | 86 | 327 | 0.0 | 0.0 | 0.00 | 0.00 | 0.00 | 77 | 1020.3 |
| 20260831172136 | 86 | 230 | 0.0 | 0.0 | 0.00 | 0.00 | 0.00 | 77 | 1020.3 |
| 20260831171550 | 85 | 352 | 0.0 | 0.0 | 0.00 | 0.00 | 0.00 | 78 | 1020.6 |
| 20260831170347 | 85 | 251 | 0.0 | 0.0 | 0.00 | 0.00 | 0.00 | 80 | 1020.3 |
| 20260831165742 | 85 | 344 | 5.0 | 7.0 | 0.00 | 0.00 | 0.00 | 77 | 1020.6 |
| 20260831165109 | 84 | 178 | 1.0 | 2.0 | 0.00 | 0.00 | 0.00 | 78 | 1020.6 |
| 20260831164546 | 84 | 255 | 0.0 | 0.0 | 0.00 | 0.00 | 0.00 | 81 | 1020.6 |
| 20260831163913 | 83 | 53 | 0.0 | 2.0 | 0.00 | 0.00 | 0.00 | 79 | 1020.6 |
| 20260831162735 | 81 | 28 | 0.0 | 0.0 | 0.00 | 0.00 | 0.00 | 81 | 1020.6 |
| 20260831162144 | 80 | 26 | 0.0 | 2.0 | 0.00 | 0.00 | 0.00 | 83 | 1020.6 |
| 20260831161515 | 79 | 278 | 0.0 | 0.0 | 0.00 | 0.00 | 0.00 | 84 | 1020.6 |
| 20260831160937 | 79 | 57 | 0.0 | 2.0 | 0.00 | 0.00 | 0.00 | 85 | 1020.6 |
| 20260831160347 | 78 | 240 | 0.0 | 0.0 | 0.00 | 0.00 | 0.00 | 90 | 1020.6 |
| 20260831155723 | 78 | 233 | 0.0 | 0.0 | 0.00 | 0.00 | 0.00 | 94 | 1020.6 |
| 20260831155135 | 78 | 239 | 0.0 | 0.0 | 0.00 | 0.00 | 0.00 | 95 | 1020.6 |
| 20260831153308 | 78 | 230 | 0.0 | 0.0 | 0.00 | 0.00 | 0.00 | 96 | 1020.6 |
| 20260831152717 | 78 | 243 | 0.0 | 0.0 | 0.00 | 0.00 | 0.00 | 96 | 1020.9 |
| 20260831152111 | 79 | 244 | 0.0 | 0.0 | 0.00 | 0.00 | 0.00 | 95 | 1020.9 |
| 20260831151532 | 79 | 239 | 0.0 | 0.0 | 0.00 | 0.00 | 0.00 | 95 | 1021.3 |
| 20260831150926 | 80 | 214 | 0.0 | 0.0 | 0.00 | 0.00 | 0.00 | 93 | 1020.9 |
| 20260831150317 | 80 | 233 | 0.0 | 0.0 | 0.00 | 0.00 | 0.00 | 93 | 1020.9 |
| 20260831145150 | 79 | 170 | 0.0 | 0.0 | 0.00 | 0.00 | 0.00 | 90 | 1020.9 |
| 20260831144533 | 78 | 172 | 0.0 | 0.0 | 0.00 | 0.00 | 0.00 | 90 | 1020.6 |
| 20260831143922 | 77 | 67 | 0.0 | 0.0 | 0.00 | 0.00 | 0.00 | 89 | 1020.6 |
| 20260831143331 | 76 | 115 | 0.0 | 2.0 | 0.00 | 0.00 | 0.00 | 92 | 1020.6 |
| 20260831142706 | 75 | 78 | 0.0 | 0.0 | 0.00 | 0.00 | 0.00 | 94 | 1020.6 |
| 20260831142118 | 75 | 247 | 0.0 | 0.0 | 0.00 | 0.00 | 0.00 | 97 | 1020.6 |
| 20260831141536 | 74 | 86 | 1.0 | 2.0 | 0.00 | 0.00 | 0.00 | 97 | 1020.6 |
| 20260831140929 | 74 | 241 | 0.0 | 0.0 | 0.00 | 0.00 | 0.00 | 98 | 1020.6 |
| 20260831140339 | 73 | 142 | 0.0 | 0.0 | 0.00 | 0.00 | 0.00 | 98 | 1020.6 |
| 20260831135715 | 73 | 109 | 0.0 | 0.0 | 0.00 | 0.00 | 0.00 | 98 | 1020.6 |
| 20260831135125 | 72 | 150 | 0.0 | 0.0 | 0.00 | 0.00 | 0.00 | 99 | 1020.6 |
| 20260831134535 | 72 | 73 | 0.0 | 0.0 | 0.00 | 0.00 | 0.00 | 99 | 1020.6 |
| 20260831133340 | 72 | 64 | 1.0 | 5.0 | 0.00 | 0.00 | 0.00 | 99 | 1020.6 |
| 20260831132733 | 72 | 234 | 0.0 | 0.0 | 0.00 | 0.00 | 0.00 | 99 | 1020.3 |
| 20260831132121 | 71 | 230 | 0.0 | 0.0 | 0.00 | 0.00 | 0.00 | 99 | 1020.6 |
| 20260831131513 | 71 | 216 | 0.0 | 0.0 | 0.00 | 0.00 | 0.00 | 99 | 1020.6 |
| 20260831130314 | 70 | 224 | 0.0 | 0.0 | 0.00 | 0.00 | 0.00 | 99 | 1020.6 |
| 20260831125714 | 70 | 230 | 0.0 | 0.0 | 0.00 | 0.00 | 0.00 | 99 | 1020.6 |
| 20260831125135 | 70 | 237 | 0.0 | 0.0 | 0.00 | 0.00 | 0.00 | 99 | 1020.6 |
| 20260831123910 | 69 | 251 | 0.0 | 0.0 | 0.00 | 0.00 | 0.00 | 99 | 1020.6 |
| 20260831123350 | 69 | 234 | 0.0 | 0.0 | 0.00 | 0.00 | 0.00 | 99 | 1020.3 |
| 20260831122713 | 69 | 236 | 0.0 | 0.0 | 0.00 | 0.00 | 0.00 | 99 | 1020.3 |
| 20260831122148 | 69 | 235 | 0.0 | 0.0 | 0.00 | 0.00 | 0.00 | 99 | 1020.6 |
| 20260831121520 | 69 | 253 | 0.0 | 0.0 | 0.00 | 0.00 | 0.00 | 99 | 1020.3 |
| 20260831120318 | 68 | 216 | 0.0 | 0.0 | 0.00 | 0.00 | 0.00 | 99 | 1020.3 |
| 20260831115743 | 68 | 224 | 0.0 | 0.0 | 0.00 | 0.00 | 0.00 | 99 | 1020.3 |
| 20260831114546 | 68 | 227 | 0.0 | 0.0 | 0.00 | 0.00 | 0.00 | 99 | 1019.9 |
| 20260831113932 | 68 | 223 | 0.0 | 0.0 | 0.00 | 0.00 | 0.00 | 99 | 1019.9 |
| 20260831113326 | 67 | 223 | 0.0 | 0.0 | 0.00 | 0.00 | 0.00 | 99 | 1020.3 |
| 20260831112739 | 67 | 233 | 0.0 | 0.0 | 0.00 | 0.00 | 0.00 | 99 | 1019.9 |
| 20260831111510 | 67 | 227 | 0.0 | 0.0 | 0.00 | 0.00 | 0.00 | 99 | 1019.9 |
| 20260831110946 | 67 | 238 | 0.0 | 0.0 | 0.00 | 0.00 | 0.00 | 99 | 1019.9 |
| 20260831105122 | 66 | 201 | 0.0 | 0.0 | 0.00 | 0.00 | 0.00 | 99 | 1019.9 |
| 20260831104545 | 66 | 220 | 0.0 | 0.0 | 0.00 | 0.00 | 0.00 | 99 | 1019.9 |
| 20260831103922 | 65 | 173 | 0.0 | 0.0 | 0.00 | 0.00 | 0.00 | 99 | 1019.9 |
| 20260831102731 | 65 | 230 | 0.0 | 0.0 | 0.00 | 0.00 | 0.00 | 99 | 1019.6 |
| 20260831102144 | 65 | 240 | 0.0 | 0.0 | 0.00 | 0.00 | 0.00 | 99 | 1019.6 |
| 20260831100330 | 65 | 234 | 0.0 | 0.0 | 0.00 | 0.00 | 0.00 | 99 | 1019.6 |
| 20260831095726 | 65 | 238 | 0.0 | 0.0 | 0.00 | 0.00 | 0.00 | 99 | 1019.6 |
| 20260831095136 | 65 | 232 | 0.0 | 0.0 | 0.00 | 0.00 | 0.00 | 99 | 1019.6 |
| 20260831094508 | 65 | 229 | 0.0 | 0.0 | 0.00 | 0.00 | 0.00 | 99 | 1019.6 |
| 20260831093319 | 65 | 229 | 0.0 | 0.0 | 0.00 | 0.00 | 0.00 | 99 | 1019.6 |
| 20260831092744 | 65 | 237 | 0.0 | 0.0 | 0.00 | 0.00 | 0.00 | 99 | 1019.3 |
| 20260831091515 | 65 | 238 | 0.0 | 0.0 | 0.00 | 0.00 | 0.00 | 99 | 1019.3 |
| 20260831090932 | 65 | 233 | 0.0 | 0.0 | 0.00 | 0.00 | 0.00 | 99 | 1019.3 |
| 20260831090349 | 65 | 237 | 0.0 | 0.0 | 0.00 | 0.00 | 0.00 | 99 | 1019.3 |
| 20260831085745 | 65 | 237 | 0.0 | 0.0 | 0.00 | 0.00 | 0.00 | 99 | 1019.6 |
| 20260831085143 | 65 | 237 | 0.0 | 0.0 | 0.00 | 0.00 | 0.00 | 99 | 1019.6 |
| 20260831084541 | 65 | 237 | 0.0 | 0.0 | 0.00 | 0.00 | 0.00 | 99 | 1019.6 |
| 20260831083914 | 65 | 237 | 0.0 | 0.0 | 0.00 | 0.00 | 0.00 | 99 | 1019.3 |
| 20260831083350 | 65 | 237 | 0.0 | 0.0 | 0.00 | 0.00 | 0.00 | 99 | 1019.3 |
| 20260831082735 | 66 | 237 | 0.0 | 0.0 | 0.00 | 0.00 | 0.00 | 99 | 1019.3 |
| 20260831082129 | 66 | 237 | 0.0 | 0.0 | 0.00 | 0.00 | 0.00 | 99 | 1018.9 |
| 20260831081521 | 66 | 237 | 0.0 | 0.0 | 0.00 | 0.00 | 0.00 | 99 | 1018.9 |
| 20260831080934 | 66 | 237 | 0.0 | 0.0 | 0.00 | 0.00 | 0.00 | 99 | 1018.9 |
| 20260831080325 | 66 | 238 | 0.0 | 0.0 | 0.00 | 0.00 | 0.00 | 99 | 1019.3 |
| 20260831075739 | 66 | 238 | 0.0 | 0.0 | 0.00 | 0.00 | 0.00 | 99 | 1018.9 |
| 20260831075148 | 66 | 236 | 0.0 | 0.0 | 0.00 | 0.00 | 0.00 | 99 | 1018.9 |
| 20260831073946 | 66 | 236 | 0.0 | 0.0 | 0.00 | 0.00 | 0.00 | 99 | 1019.3 |
| 20260831073349 | 66 | 237 | 0.0 | 0.0 | 0.00 | 0.00 | 0.00 | 99 | 1018.9 |
| 20260831072742 | 67 | 237 | 0.0 | 0.0 | 0.00 | 0.00 | 0.00 | 99 | 1018.9 |
| 20260831072149 | 67 | 237 | 0.0 | 0.0 | 0.00 | 0.00 | 0.00 | 99 | 1018.9 |
| 20260831071523 | 67 | 235 | 0.0 | 0.0 | 0.00 | 0.00 | 0.00 | 99 | 1018.9 |
| 20260831070928 | 67 | 236 | 0.0 | 0.0 | 0.00 | 0.00 | 0.00 | 99 | 1019.3 |
| 20260831070307 | 67 | 239 | 0.0 | 0.0 | 0.00 | 0.00 | 0.00 | 99 | 1019.3 |
| 20260831065736 | 67 | 234 | 0.0 | 0.0 | 0.00 | 0.00 | 0.00 | 99 | 1018.9 |
| 20260831065141 | 67 | 234 | 0.0 | 0.0 | 0.00 | 0.00 | 0.00 | 99 | 1018.9 |
| 20260831064514 | 67 | 236 | 0.0 | 0.0 | 0.00 | 0.00 | 0.00 | 99 | 1018.9 |
| 20260831063335 | 67 | 251 | 0.0 | 0.0 | 0.00 | 0.00 | 0.00 | 99 | 1019.3 |
| 20260831062738 | 67 | 219 | 0.0 | 0.0 | 0.00 | 0.00 | 0.00 | 99 | 1019.3 |
| 20260831061510 | 68 | 234 | 0.0 | 0.0 | 0.00 | 0.00 | 0.00 | 99 | 1018.9 |
| 20260831060929 | 68 | 234 | 0.0 | 0.0 | 0.00 | 0.00 | 0.00 | 99 | 1019.3 |
| 20260831060306 | 68 | 234 | 0.0 | 0.0 | 0.00 | 0.00 | 0.00 | 99 | 1019.6 |
| 20260831055726 | 68 | 233 | 0.0 | 0.0 | 0.00 | 0.00 | 0.00 | 99 | 1019.3 |
| 20260831055110 | 68 | 233 | 0.0 | 0.0 | 0.00 | 0.00 | 0.00 | 99 | 1019.6 |
| 20260831054545 | 68 | 235 | 0.0 | 0.0 | 0.00 | 0.00 | 0.00 | 99 | 1019.3 |
| 20260831053931 | 68 | 237 | 0.0 | 0.0 | 0.00 | 0.00 | 0.00 | 99 | 1019.3 |
| 20260831053334 | 68 | 237 | 0.0 | 0.0 | 0.00 | 0.00 | 0.00 | 99 | 1019.3 |
| 20260831052718 | 68 | 237 | 0.0 | 0.0 | 0.00 | 0.00 | 0.00 | 99 | 1019.3 |
| 20260831052122 | 68 | 234 | 0.0 | 0.0 | 0.00 | 0.00 | 0.00 | 99 | 1019.6 |
| 20260831051546 | 68 | 237 | 0.0 | 0.0 | 0.00 | 0.00 | 0.00 | 99 | 1019.6 |
| 20260831050938 | 69 | 232 | 0.0 | 0.0 | 0.00 | 0.00 | 0.00 | 99 | 1019.6 |
| 20260831050333 | 69 | 223 | 0.0 | 0.0 | 0.00 | 0.00 | 0.00 | 99 | 1019.3 |
| 20260831045726 | 69 | 231 | 0.0 | 0.0 | 0.00 | 0.00 | 0.00 | 99 | 1019.6 |
| 20260831045111 | 69 | 225 | 0.0 | 0.0 | 0.00 | 0.00 | 0.00 | 99 | 1019.3 |
| 20260831044519 | 69 | 235 | 0.0 | 0.0 | 0.00 | 0.00 | 0.00 | 99 | 1019.6 |
| 20260831042732 | 70 | 235 | 0.0 | 0.0 | 0.00 | 0.00 | 0.00 | 99 | 1019.6 |
| 20260831042110 | 70 | 235 | 0.0 | 0.0 | 0.00 | 0.00 | 0.00 | 99 | 1019.6 |
| 20260831041516 | 70 | 235 | 0.0 | 0.0 | 0.00 | 0.00 | 0.00 | 99 | 1019.6 |
| 20260831040912 | 70 | 236 | 0.0 | 0.0 | 0.00 | 0.00 | 0.00 | 99 | 1019.6 |
| 20260831035738 | 70 | 236 | 0.0 | 0.0 | 0.00 | 0.00 | 0.00 | 99 | 1019.6 |
| 20260831035107 | 70 | 235 | 0.0 | 0.0 | 0.00 | 0.00 | 0.00 | 99 | 1019.6 |
| 20260831034519 | 70 | 235 | 0.0 | 0.0 | 0.00 | 0.00 | 0.00 | 99 | 1019.6 |
| 20260831033929 | 70 | 239 | 0.0 | 0.0 | 0.00 | 0.00 | 0.00 | 99 | 1019.6 |
| 20260831033344 | 70 | 238 | 0.0 | 0.0 | 0.00 | 0.00 | 0.00 | 99 | 1019.6 |